QPF
0.00 0.00 0.00 0.00 0.00 0.00 0.00 0.00 0.00 0.00 0.00 0.00 0.00 0.00 0.00 0.00 0.00 0.00 0.00 0.00 0.00 0.00 0.00 0.00 0.00 0.00 0.00 0.00 0.00 0.00 0.00 0.00 0.00 0.00 0.00 0.00 0.00 0.00 0.00 0.00 0.00 0.00 0.00 0.00 0.00 0.00 0.00
0.00 0.00 0.00 0.00 0.00 0.00 0.00 0.00 0.00 0.00 0.00 0.00 0.00 0.00 0.00 0.00 0.00 0.00 0.00 0.00 0.00 0.00 0.00 0.00 0.00 0.00 0.00 0.00 0.00 0.00 0.00 0.00 0.00 0.00 0.00 0.00 0.00 0.00 0.00 0.00 0.00 0.00 0.00 0.00 0.00 0.00 0.00
0.00 0.00 0.00 0.00 0.00 0.00 0.00 0.00 0.00 0.00 0.00 0.00 0.00 0.00 0.00 0.00 0.00 0.00 0.00 0.00 0.00 0.00 0.00 0.01 0.00 0.00 0.00 0.00 0.00 0.00 0.00 0.00 0.00 0.00 0.00 0.00 0.00 0.00 0.00 0.00 0.00 0.00 0.00 0.00 0.00 0.00 0.00
0.01 0.00 0.00 0.00 0.00 0.00 0.00 0.00 0.00 0.00 0.00 0.00 0.00 0.00 0.00 0.00 0.00 0.00 0.00 0.00 0.00 0.00 0.01 0.00 0.00 0.00 0.00 0.00 0.00 0.00 0.00 0.00 0.00 0.00 0.00 0.00 0.00 0.00 0.00 0.00 0.00 0.00 0.00 0.00 0.00 0.00 0.00
0.02 0.00 0.00 0.00 0.00 0.00 0.00 0.00 0.00 0.00 0.00 0.00 0.00 0.00 0.00 0.00 0.00 0.00 0.00 0.00 0.00 0.00 0.00 0.00 0.00 0.00 0.00 0.00 0.00 0.00 0.00 0.00 0.00 0.00 0.00 0.00 0.00 0.00 0.00 0.00 0.00 0.00 0.00 0.00 0.00 0.00 0.00
0.03 0.01 0.00 0.00 0.00 0.00 0.00 0.00 0.00 0.00 0.00 0.00 0.00 0.00 0.00 0.00 0.00 0.00 0.00 0.00 0.00 0.00 0.00 0.00 0.00 0.00 0.00 0.00 0.00 0.00 0.00 0.00 0.00 0.00 0.00 0.00 0.00 0.00 0.00 0.00 0.00 0.00 0.00 0.00 0.00 0.00 0.00
0.05 0.03 0.00 0.00 0.00 0.00 0.00 0.00 0.00 0.00 0.00 0.00 0.00 0.00 0.00 0.00 0.00 0.00 0.00 0.00 0.00 0.00 0.00 0.00 0.00 0.00 0.00 0.00 0.00 0.00 0.00 0.00 0.00 0.00 0.00 0.00 0.00 0.00 0.00 0.00 0.00 0.00 0.00 0.00 0.00 0.00 0.00
0.03 0.02 0.01 0.00 0.00 0.00 0.00 0.00 0.00 0.00 0.00 0.00 0.00 0.00 0.00 0.00 0.00 0.00 0.00 0.00 0.00 0.00 0.00 0.00 0.00 0.00 0.00 0.00 0.00 0.00 0.00 0.00 0.00 0.00 0.00 0.00 0.00 0.00 0.00 0.00 0.00 0.00 0.00 0.00 0.00 0.00 0.00
0.02 0.01 0.00 0.00 0.00 0.00 0.00 0.00 0.00 0.00 0.00 0.00 0.00 0.00 0.00 0.00 0.00 0.00 0.00 0.00 0.00 0.00 0.00 0.00 0.00 0.00 0.00 0.00 0.00 0.00 0.00 0.00 0.00 0.00 0.00 0.00 0.00 0.00 0.00 0.00 0.00 0.00 0.00 0.00 0.00 0.00 0.00
0.05 0.03 0.01 0.00 0.00 0.00 0.00 0.00 0.00 0.00 0.00 0.00 0.00 0.00 0.00 0.00 0.00 0.00 0.00 0.00 0.00 0.00 0.00 0.00 0.00 0.00 0.00 0.00 0.00 0.00 0.00 0.00 0.00 0.00 0.00 0.00 0.00 0.00 0.00 0.00 0.00 0.00 0.00 0.00 0.00 0.00 0.00
0.07 0.05 0.04 0.01 0.00 0.00 0.00 0.00 0.00 0.00 0.00 0.00 0.00 0.00 0.00 0.00 0.00 0.00 0.00 0.00 0.00 0.00 0.00 0.00 0.00 0.00 0.00 0.00 0.00 0.00 0.00 0.00 0.00 0.00 0.00 0.00 0.00 0.00 0.00 0.00 0.00 0.00 0.00 0.00 0.00 0.00 0.00
0.08 0.05 0.02 0.01 0.00 0.00 0.00 0.00 0.00 0.00 0.00 0.00 0.00 0.00 0.00 0.00 0.00 0.00 0.00 0.00 0.00 0.00 0.00 0.00 0.00 0.00 0.00 0.00 0.00 0.00 0.00 0.00 0.00 0.00 0.00 0.00 0.00 0.00 0.00 0.00 0.00 0.00 0.00 0.00 0.00 0.00 0.00
0.11 0.11 0.06 0.02 0.00 0.00 0.00 0.00 0.00 0.00 0.00 0.00 0.00 0.00 0.00 0.00 0.00 0.00 0.00 0.00 0.00 0.00 0.00 0.00 0.00 0.00 0.00 0.00 0.00 0.00 0.00 0.00 0.00 0.00 0.00 0.00 0.00 0.00 0.00 0.00 0.00 0.00 0.00 0.00 0.00 0.00 0.00
0.10 0.19 0.14 0.05 0.01 0.00 0.00 0.00 0.00 0.00 0.00 0.00 0.00 0.00 0.00 0.00 0.00 0.00 0.00 0.00 0.00 0.00 0.00 0.00 0.00 0.00 0.00 0.00 0.00 0.00 0.00 0.00 0.00 0.00 0.00 0.00 0.00 0.00 0.00 0.00 0.00 0.00 0.00 0.00 0.00 0.00 0.00
0.14 0.25 0.18 0.10 0.04 0.00 0.00 0.00 0.00 0.00 0.00 0.00 0.00 0.00 0.00 0.01 0.00 0.00 0.00 0.00 0.00 0.00 0.00 0.00 0.00 0.00 0.00 0.00 0.00 0.00 0.00 0.00 0.00 0.00 0.00 0.00 0.00 0.00 0.00 0.00 0.00 0.00 0.00 0.00 0.00 0.00 0.00
0.16 0.27 0.26 0.13 0.03 0.00 0.00 0.00 0.00 0.00 0.00 0.00 0.00 0.00 0.00 0.00 0.00 0.00 0.00 0.00 0.00 0.00 0.00 0.00 0.00 0.00 0.00 0.00 0.00 0.00 0.00 0.00 0.00 0.00 0.00 0.00 0.00 0.00 0.00 0.00 0.00 0.00 0.00 0.00 0.00 0.00 0.00
0.20 0.28 0.22 0.10 0.04 0.00 0.00 0.00 0.00 0.00 0.00 0.00 0.00 0.00 0.00 0.00 0.00 0.00 0.00 0.00 0.00 0.00 0.00 0.00 0.00 0.00 0.00 0.00 0.00 0.00 0.00 0.00 0.00 0.00 0.00 0.00 0.00 0.00 0.00 0.00 0.00 0.00 0.00 0.00 0.00 0.00 0.00
0.37 0.47 0.17 0.02 0.00 0.00 0.00 0.00 0.00 0.00 0.00 0.00 0.00 0.00 0.01 0.00 0.00 0.00 0.00 0.00 0.00 0.00 0.00 0.00 0.00 0.00 0.00 0.00 0.00 0.00 0.00 0.00 0.00 0.00 0.00 0.00 0.00 0.00 0.00 0.00 0.00 0.00 0.00 0.00 0.00 0.00 0.00
0.46 0.56 0.22 0.03 0.00 0.00 0.00 0.00 0.00 0.00 0.00 0.00 0.00 0.02 0.03 0.00 0.00 0.00 0.00 0.00 0.00 0.00 0.00 0.00 0.00 0.00 0.00 0.00 0.00 0.00 0.00 0.00 0.00 0.00 0.00 0.00 0.00 0.00 0.00 0.00 0.00 0.00 0.00 0.00 0.00 0.00 0.00
0.48 0.41 0.09 0.03 0.00 0.00 0.00 0.00 0.00 0.00 0.00 0.00 0.00 0.00 0.01 0.00 0.00 0.00 0.00 0.00 0.00 0.00 0.00 0.00 0.00 0.00 0.00 0.00 0.00 0.00 0.00 0.00 0.00 0.00 0.00 0.00 0.00 0.00 0.00 0.00 0.00 0.00 0.00 0.00 0.00 0.00 0.00
0.37 0.19 0.04 0.01 0.00 0.00 0.00 0.00 0.00 0.00 0.00 0.00 0.00 0.00 0.00 0.00 0.00 0.00 0.00 0.00 0.00 0.00 0.00 0.00 0.00 0.00 0.00 0.00 0.00 0.00 0.00 0.00 0.00 0.00 0.00 0.00 0.00 0.00 0.00 0.00 0.00 0.00 0.00 0.00 0.00 0.00 0.00
0.19 0.04 0.01 0.00 0.00 0.00 0.00 0.00 0.00 0.00 0.00 0.01 0.00 0.00 0.00 0.00 0.00 0.00 0.00 0.00 0.00 0.00 0.00 0.00 0.00 0.00 0.00 0.00 0.00 0.00 0.00 0.00 0.00 0.00 0.00 0.00 0.00 0.00 0.00 0.00 0.00 0.00 0.00 0.00 0.00 0.00 0.00
0.07 0.01 0.00 0.00 0.00 0.00 0.00 0.00 0.00 0.00 0.00 0.00 0.01 0.00 0.00 0.00 0.00 0.00 0.00 0.00 0.00 0.00 0.00 0.00 0.00 0.00 0.00 0.00 0.00 0.00 0.00 0.00 0.00 0.00 0.00 0.00 0.00 0.00 0.00 0.00 0.00 0.00 0.00 0.00 0.00 0.00 0.00
0.02 0.00 0.00 0.00 0.00 0.00 0.00 0.00 0.00 0.00 0.00 0.00 0.00 0.00 0.00 0.00 0.00 0.00 0.00 0.00 0.00 0.00 0.00 0.00 0.00 0.00 0.00 0.00 0.00 0.00 0.00 0.00 0.00 0.00 0.00 0.00 0.00 0.00 0.00 0.00 0.00 0.00 0.00 0.00 0.00 0.00 0.00
0.00 0.00 0.00 0.00 0.00 0.00 0.00 0.00 0.00 0.00 0.00 0.00 0.00 0.00 0.00 0.00 0.00 0.00 0.00 0.00 0.00 0.00 0.00 0.00 0.00 0.00 0.00 0.00 0.00 0.00 0.00 0.00 0.00 0.00 0.00 0.00 0.00 0.00 0.00 0.00 0.00 0.00 0.00 0.00 0.00 0.00 0.00
0.00 0.00 0.00 0.00 0.00 0.00 0.00 0.00 0.00 0.00 0.00 0.00 0.00 0.01 0.00 0.00 0.00 0.00 0.00 0.00 0.00 0.00 0.00 0.00 0.00 0.00 0.00 0.00 0.00 0.00 0.00 0.00 0.00 0.00 0.00 0.00 0.00 0.00 0.00 0.00 0.00 0.00 0.00 0.00 0.00 0.00 0.00
0.00 0.00 0.00 0.00 0.00 0.00 0.00 0.00 0.00 0.00 0.00 0.00 0.00 0.01 0.00 0.00 0.00 0.00 0.00 0.00 0.00 0.00 0.00 0.00 0.00 0.00 0.00 0.00 0.00 0.00 0.00 0.00 0.00 0.00 0.00 0.00 0.00 0.00 0.00 0.00 0.00 0.00 0.00 0.00 0.00 0.00 0.00
0.00 0.00 0.00 0.00 0.00 0.00 0.00 0.00 0.00 0.00 0.00 0.00 0.00 0.00 0.00 0.00 0.00 0.00 0.00 0.00 0.00 0.00 0.00 0.00 0.00 0.00 0.00 0.00 0.00 0.00 0.00 0.00 0.00 0.00 0.00 0.00 0.00 0.00 0.00 0.00 0.00 0.00 0.00 0.00 0.00 0.00 0.00
0.00 0.00 0.00 0.00 0.00 0.00 0.00 0.00 0.00 0.00 0.00 0.00 0.02 0.02 0.00 0.00 0.00 0.00 0.00 0.00 0.00 0.00 0.00 0.00 0.00 0.00 0.00 0.00 0.00 0.00 0.00 0.00 0.00 0.00 0.00 0.00 0.00 0.00 0.00 0.00 0.00 0.00 0.00 0.00 0.00 0.00 0.00
MSLP
1015.99 1016.27 1016.68 1017.04 1017.18 1017.27 1017.79 1018.03 1017.80 1017.91 1017.91 1017.77 1017.79 1017.74 1017.66 1017.60 1017.63 1017.70 1017.83 1017.83 1017.53 1017.30 1017.30 1017.35 1017.40 1017.23 1016.99 1015.75 1012.78 1010.67 1010.65 1010.84 1011.46 1011.75 1011.63 1011.85 1012.20 1012.10 1011.98 1011.93 1011.85 1011.76 1011.40 1011.50 1011.45 1011.32 1012.06
1015.47 1015.58 1015.86 1016.47 1016.63 1016.92 1017.39 1017.41 1017.63 1017.35 1017.60 1017.77 1017.35 1017.34 1017.31 1017.11 1017.40 1017.51 1017.58 1017.54 1017.29 1017.20 1017.36 1017.33 1017.35 1017.28 1016.71 1014.20 1010.52 1010.46 1010.89 1011.30 1011.30 1011.57 1011.67 1011.77 1011.65 1011.69 1011.52 1011.50 1011.47 1011.38 1011.45 1011.43 1011.69 1011.87 1012.34
1014.61 1015.04 1015.38 1015.53 1016.04 1016.26 1016.59 1016.77 1017.38 1017.45 1017.22 1017.17 1017.20 1017.00 1016.81 1016.71 1016.91 1017.08 1017.10 1017.24 1017.07 1017.22 1017.28 1017.20 1017.30 1017.03 1015.94 1012.13 1010.30 1010.49 1010.60 1010.75 1010.87 1010.90 1011.17 1011.30 1011.40 1011.57 1011.29 1011.43 1011.40 1011.36 1011.54 1011.71 1012.01 1012.10 1012.71
1013.81 1014.28 1014.42 1014.94 1015.50 1015.64 1016.09 1016.23 1016.33 1016.79 1016.79 1016.87 1016.75 1016.57 1016.49 1016.53 1016.69 1016.78 1016.82 1017.06 1017.06 1017.32 1017.22 1017.17 1017.23 1016.84 1014.07 1010.37 1010.29 1010.49 1010.27 1010.25 1010.48 1010.74 1010.73 1010.78 1011.20 1011.59 1011.50 1011.36 1011.36 1011.44 1011.84 1012.07 1012.38 1012.43 1013.17
1013.76 1013.46 1013.77 1014.25 1014.73 1015.03 1015.28 1015.87 1015.99 1015.95 1016.19 1016.20 1016.26 1016.25 1016.36 1016.13 1016.52 1016.50 1016.78 1016.74 1017.19 1017.53 1017.31 1017.14 1017.24 1016.35 1012.52 1009.84 1010.01 1009.32 1009.30 1009.50 1010.15 1010.61 1010.70 1010.87 1011.03 1011.50 1011.56 1011.59 1011.80 1012.08 1012.25 1012.39 1012.70 1012.66 1013.03
1013.18 1012.81 1013.03 1013.57 1014.02 1014.37 1014.75 1015.00 1015.48 1015.51 1015.50 1015.72 1015.67 1015.77 1016.15 1015.86 1016.53 1016.17 1016.57 1016.71 1017.29 1017.54 1017.30 1017.09 1016.51 1015.84 1011.80 1010.32 1009.61 1009.11 1008.90 1008.96 1009.59 1010.20 1010.74 1010.97 1011.30 1011.52 1011.70 1011.57 1012.00 1012.26 1012.44 1012.64 1012.76 1013.40 1013.87
1012.47 1012.73 1012.34 1012.67 1013.19 1013.85 1013.95 1014.36 1014.82 1015.02 1015.00 1015.23 1015.28 1015.31 1015.70 1015.82 1016.36 1016.15 1016.38 1017.22 1017.67 1017.22 1016.32 1014.65 1013.85 1012.95 1011.35 1010.28 1009.64 1009.07 1008.83 1008.91 1009.45 1009.91 1010.67 1011.00 1011.18 1011.45 1011.50 1011.69 1011.89 1012.18 1012.43 1012.81 1013.52 1014.07 1014.74
1011.62 1011.83 1011.68 1011.99 1012.39 1012.91 1013.58 1013.82 1014.10 1014.54 1014.44 1014.65 1014.93 1014.95 1015.33 1015.93 1015.97 1016.28 1016.37 1016.36 1013.96 1013.08 1013.62 1012.99 1012.79 1012.17 1011.20 1010.66 1009.98 1009.23 1008.90 1009.33 1009.77 1010.50 1010.85 1011.21 1011.54 1011.87 1011.88 1012.14 1012.32 1012.61 1012.99 1013.64 1014.13 1014.41 1014.81
1011.01 1011.21 1010.90 1011.06 1011.52 1012.17 1012.69 1013.36 1013.56 1014.02 1014.00 1014.09 1014.58 1014.78 1015.14 1015.95 1015.78 1016.38 1015.81 1014.43 1012.85 1012.63 1012.67 1012.10 1011.69 1011.15 1010.33 1010.41 1009.90 1009.43 1009.26 1009.62 1010.33 1010.97 1011.33 1011.60 1012.09 1012.09 1012.35 1012.71 1012.67 1013.16 1013.48 1013.81 1014.13 1014.73 1015.23
1010.20 1010.54 1010.52 1010.04 1010.84 1011.23 1012.06 1012.64 1013.11 1013.44 1013.55 1013.64 1014.17 1014.49 1015.17 1015.56 1016.08 1015.38 1014.84 1012.76 1012.87 1012.94 1012.62 1011.64 1010.80 1009.66 1009.81 1009.76 1009.89 1009.55 1009.52 1009.86 1010.74 1011.42 1011.95 1012.36 1012.37 1012.44 1012.70 1012.98 1013.00 1013.53 1013.84 1013.95 1014.28 1014.66 1015.34
1009.29 1009.48 1009.79 1009.41 1009.72 1010.68 1011.13 1012.15 1012.59 1012.84 1013.08 1013.36 1013.65 1014.19 1014.85 1014.37 1014.35 1014.08 1012.67 1012.31 1012.68 1012.85 1012.45 1010.95 1009.89 1008.91 1009.36 1009.90 1009.96 1009.95 1009.95 1009.98 1011.02 1011.69 1012.32 1012.95 1012.80 1012.83 1013.19 1013.33 1013.10 1014.13 1014.19 1014.46 1014.89 1015.17 1015.62
1008.22 1008.57 1009.02 1009.24 1009.10 1009.68 1010.41 1011.39 1012.05 1012.33 1012.61 1012.80 1013.34 1013.89 1014.69 1014.91 1014.47 1012.56 1012.24 1012.44 1012.68 1013.21 1011.68 1010.45 1009.45 1009.32 1009.85 1010.11 1010.36 1010.33 1010.32 1010.48 1011.44 1012.02 1012.29 1012.83 1012.86 1013.04 1013.27 1013.44 1013.54 1014.21 1014.65 1015.20 1015.66 1015.81 1016.19
1007.52 1007.79 1008.21 1008.81 1008.30 1008.91 1009.69 1010.63 1011.44 1011.90 1012.23 1012.32 1012.99 1013.55 1014.01 1013.57 1012.88 1012.09 1012.20 1012.77 1013.31 1012.48 1011.29 1010.68 1010.07 1009.88 1010.25 1010.79 1011.09 1011.06 1011.40 1011.85 1012.03 1012.59 1013.32 1013.33 1013.41 1013.30 1013.24 1013.63 1014.10 1014.36 1014.98 1015.88 1016.39 1016.58 1016.65
1006.74 1007.19 1007.50 1008.14 1007.54 1008.07 1009.02 1009.92 1010.79 1011.43 1011.97 1012.07 1012.77 1013.45 1013.43 1012.84 1012.20 1012.20 1012.52 1012.98 1012.97 1011.92 1011.24 1010.57 1010.31 1010.48 1010.86 1011.18 1011.74 1011.89 1012.18 1012.64 1012.63 1012.62 1013.68 1013.76 1013.95 1013.68 1013.65 1013.86 1014.24 1014.99 1015.40 1016.13 1016.79 1017.45 1017.24
1005.88 1006.52 1006.78 1006.82 1006.91 1007.33 1008.15 1009.43 1010.16 1010.94 1011.83 1011.96 1012.97 1013.67 1013.39 1011.70 1011.97 1012.71 1012.93 1012.81 1012.11 1011.60 1010.79 1010.59 1010.65 1010.90 1011.33 1011.52 1011.78 1012.37 1012.87 1013.09 1013.13 1013.02 1013.37 1013.96 1014.21 1014.06 1014.05 1014.05 1014.52 1015.36 1015.98 1016.60 1017.39 1018.63 1018.08
1005.03 1005.53 1005.62 1006.32 1006.16 1006.72 1007.38 1008.59 1009.69 1010.68 1011.43 1011.53 1012.36 1013.14 1011.91 1011.13 1011.52 1012.09 1012.59 1012.19 1011.64 1010.98 1010.31 1010.33 1010.73 1010.99 1011.61 1011.89 1012.27 1012.71 1013.21 1013.44 1013.41 1013.37 1013.19 1014.05 1014.54 1014.60 1014.45 1014.44 1014.88 1014.97 1016.11 1016.94 1017.51 1018.35 1018.22
1004.10 1004.59 1005.02 1005.64 1006.74 1006.19 1006.89 1007.67 1009.00 1010.23 1010.81 1011.23 1011.66 1012.22 1010.90 1011.02 1011.33 1011.96 1012.28 1011.82 1011.04 1010.28 1009.97 1010.07 1010.46 1011.05 1011.58 1012.04 1012.61 1013.16 1013.66 1013.81 1013.62 1013.70 1013.58 1014.18 1014.59 1015.29 1015.06 1014.94 1015.04 1015.72 1016.24 1017.30 1017.97 1018.59 1018.45
1003.33 1004.12 1003.97 1005.25 1005.57 1005.51 1006.38 1007.17 1008.39 1009.53 1010.20 1011.70 1011.17 1011.37 1010.91 1010.99 1011.55 1012.12 1011.85 1011.04 1010.31 1009.90 1009.67 1009.67 1009.90 1010.69 1011.42 1012.18 1012.92 1013.36 1013.64 1013.73 1013.85 1013.94 1014.33 1014.78 1015.26 1015.72 1015.63 1015.39 1015.42 1015.56 1016.14 1016.90 1017.93 1018.93 1019.10
1002.60 1002.53 1002.97 1003.42 1003.87 1004.67 1005.94 1006.92 1007.77 1008.60 1009.01 1010.28 1010.65 1010.70 1010.71 1010.69 1011.28 1011.96 1011.41 1010.59 1010.00 1009.73 1009.54 1009.50 1010.08 1010.53 1011.47 1012.38 1013.26 1013.67 1013.93 1014.18 1014.13 1014.35 1014.57 1014.94 1015.83 1016.31 1016.35 1016.22 1015.89 1016.04 1016.44 1017.12 1017.80 1018.37 1018.58
1001.40 1001.76 1002.55 1003.68 1003.32 1004.16 1005.57 1006.58 1007.11 1007.51 1007.88 1008.99 1009.83 1010.59 1010.99 1011.06 1010.96 1010.82 1010.97 1010.43 1010.02 1009.55 1009.53 1009.61 1010.36 1010.80 1011.78 1012.82 1013.31 1013.97 1014.34 1014.56 1014.56 1014.80 1015.00 1015.14 1016.13 1016.24 1016.41 1016.34 1016.37 1016.53 1016.67 1017.13 1017.30 1018.09 1018.02
1000.23 1001.47 1002.36 1002.16 1002.73 1003.89 1005.18 1006.16 1006.45 1006.80 1007.61 1008.90 1009.20 1009.93 1009.96 1011.04 1011.23 1010.69 1010.31 1010.17 1010.11 1009.89 1009.65 1009.85 1010.68 1011.05 1011.76 1013.11 1013.73 1014.19 1014.57 1014.93 1015.17 1015.41 1015.70 1015.93 1016.63 1017.11 1017.33 1017.35 1017.13 1016.84 1016.79 1017.02 1017.14 1017.06 1017.04
999.58 1000.70 1001.27 1001.52 1002.50 1003.71 1004.73 1005.61 1006.02 1006.34 1007.80 1008.73 1008.81 1009.27 1010.16 1010.59 1010.51 1010.81 1010.54 1010.39 1010.21 1010.37 1010.27 1010.46 1010.84 1011.72 1012.06 1012.72 1013.09 1013.89 1014.29 1014.98 1015.11 1016.00 1016.37 1016.91 1017.65 1018.00 1018.33 1018.23 1017.93 1017.38 1016.86 1016.87 1016.92 1016.89 1016.55
999.97 1000.42 1000.66 1001.40 1002.59 1003.49 1004.34 1005.06 1005.50 1005.66 1006.93 1007.79 1008.16 1008.25 1008.60 1011.20 1011.12 1011.06 1010.76 1010.44 1010.30 1010.34 1011.13 1011.12 1011.34 1012.17 1012.88 1013.33 1013.54 1013.95 1014.45 1014.66 1015.17 1016.02 1017.06 1017.77 1018.32 1019.04 1019.24 1018.97 1018.37 1017.68 1016.01 1015.94 1015.96 1015.75 1015.48
999.16 999.52 1000.41 1001.50 1002.39 1003.23 1003.88 1004.60 1004.80 1005.20 1005.92 1006.23 1006.98 1007.66 1009.13 1011.30 1011.34 1010.85 1010.54 1010.26 1010.52 1010.77 1011.27 1012.14 1012.25 1012.68 1013.90 1013.89 1014.15 1014.55 1015.27 1015.92 1016.32 1017.10 1017.40 1018.32 1019.10 1019.77 1020.22 1019.80 1018.47 1015.79 1015.40 1015.32 1015.34 1014.95 1014.98
998.85 999.75 1000.58 1001.34 1002.18 1002.91 1003.31 1003.93 1004.33 1004.89 1005.72 1005.85 1006.49 1007.14 1008.62 1010.75 1010.96 1010.77 1010.72 1010.76 1011.20 1011.54 1012.33 1012.96 1013.40 1013.73 1013.96 1014.33 1015.44 1016.32 1017.00 1017.20 1017.78 1018.22 1018.32 1018.44 1019.35 1020.48 1020.84 1020.11 1018.02 1015.63 1015.29 1015.33 1015.25 1014.30 1013.99
998.82 999.73 1000.39 1001.34 1001.96 1002.30 1002.88 1003.43 1003.91 1004.86 1005.45 1005.80 1006.55 1006.81 1007.85 1009.61 1010.66 1010.08 1010.73 1010.90 1011.50 1012.36 1013.22 1013.90 1014.21 1014.29 1014.66 1015.75 1016.53 1017.62 1018.00 1017.88 1018.42 1018.80 1019.03 1019.26 1019.42 1019.92 1021.13 1020.15 1018.15 1015.80 1015.13 1015.00 1015.09 1014.61 1014.01
999.05 999.76 1000.63 1001.17 1001.69 1002.16 1002.58 1003.06 1003.61 1004.52 1005.25 1005.50 1006.63 1006.80 1007.52 1009.15 1010.01 1009.96 1010.20 1010.66 1011.22 1012.10 1013.28 1014.14 1014.57 1014.88 1015.22 1016.53 1017.71 1018.51 1018.53 1018.38 1018.63 1018.92 1019.48 1019.92 1020.42 1020.66 1020.86 1019.66 1017.67 1015.64 1015.39 1015.26 1015.39 1015.01 1014.46
999.47 1000.16 1000.84 1001.29 1001.61 1001.95 1002.32 1002.62 1003.39 1004.35 1004.93 1005.10 1006.91 1007.18 1007.25 1009.12 1010.17 1010.03 1009.93 1010.38 1010.94 1011.27 1012.56 1013.97 1014.66 1015.25 1016.03 1016.89 1018.16 1018.81 1018.92 1018.66 1018.75 1018.66 1018.84 1019.11 1019.85 1020.50 1020.68 1019.28 1017.20 1015.53 1015.65 1015.56 1014.78 1014.52 1014.65
999.91 1000.70 1001.28 1001.61 1001.86 1001.89 1001.97 1002.36 1003.15 1004.02 1004.64 1004.93 1006.76 1007.40 1007.57 1008.56 1010.39 1010.38 1010.35 1010.28 1010.21 1010.28 1011.29 1013.12 1013.27 1014.00 1014.74 1016.49 1018.28 1018.96 1019.33 1019.41 1019.23 1019.05 1018.73 1018.76 1018.22 1018.43 1018.61 1016.92 1015.68 1015.41 1014.99 1014.74 1014.85 1014.94 1014.89
Thickness
5628 5628 5627 5626 5628 5630 5624 5624 5628 5628 5628 5628 5627 5625 5623 5619 5614 5613 5611 5608 5611 5611 5611 5612 5613 5614 5617 5625 5641 5670 5673 5674 5670 5668 5666 5662 5656 5659 5657 5662 5667 5668 5673 5675 5681 5685 5678
5621 5624 5625 5621 5624 5624 5620 5622 5621 5627 5624 5620 5624 5623 5619 5618 5612 5611 5609 5606 5609 5608 5608 5609 5609 5611 5616 5624 5667 5670 5670 5668 5669 5666 5663 5664 5664 5666 5666 5667 5669 5672 5673 5675 5677 5673 5674
5616 5616 5617 5620 5619 5620 5620 5620 5614 5616 5620 5619 5618 5619 5618 5616 5611 5610 5608 5605 5608 5606 5606 5608 5607 5611 5616 5640 5668 5669 5670 5670 5671 5670 5665 5669 5671 5667 5671 5666 5675 5674 5670 5673 5672 5675 5671
5611 5611 5616 5614 5612 5616 5615 5618 5620 5615 5616 5615 5616 5616 5614 5611 5608 5608 5606 5603 5604 5603 5605 5606 5605 5609 5626 5664 5667 5667 5671 5672 5673 5674 5675 5678 5675 5670 5670 5675 5671 5668 5664 5660 5669 5674 5668
5598 5605 5608 5608 5609 5611 5614 5611 5613 5617 5616 5616 5615 5612 5608 5610 5605 5607 5602 5602 5599 5598 5601 5603 5603 5609 5634 5667 5662 5675 5677 5674 5672 5672 5674 5676 5676 5666 5669 5662 5660 5657 5651 5654 5659 5672 5672
5590 5597 5602 5602 5605 5608 5609 5612 5610 5614 5616 5614 5614 5610 5604 5607 5601 5605 5599 5598 5595 5595 5598 5600 5606 5610 5644 5651 5663 5672 5681 5681 5674 5670 5667 5668 5664 5661 5660 5664 5647 5652 5653 5654 5658 5663 5660
5579 5585 5595 5599 5602 5601 5608 5608 5608 5610 5613 5611 5610 5608 5602 5602 5598 5600 5597 5591 5593 5598 5602 5620 5627 5630 5643 5656 5665 5669 5678 5677 5673 5668 5656 5660 5662 5657 5664 5662 5662 5659 5656 5655 5653 5656 5650
5568 5575 5586 5592 5596 5599 5600 5604 5607 5606 5610 5609 5606 5605 5600 5596 5597 5594 5595 5595 5614 5625 5617 5624 5626 5631 5642 5649 5647 5661 5677 5665 5662 5650 5658 5657 5649 5658 5659 5660 5657 5654 5651 5646 5649 5651 5652
5552 5561 5576 5585 5590 5593 5597 5599 5603 5602 5606 5607 5602 5600 5597 5591 5595 5590 5594 5607 5621 5625 5617 5627 5630 5633 5643 5647 5646 5652 5668 5663 5654 5648 5649 5648 5653 5658 5655 5651 5655 5648 5647 5646 5650 5649 5647
5540 5551 5560 5576 5580 5587 5589 5595 5597 5599 5601 5603 5599 5596 5592 5591 5590 5594 5599 5619 5619 5620 5603 5619 5629 5640 5645 5649 5642 5660 5666 5663 5651 5643 5644 5645 5651 5651 5649 5647 5652 5643 5651 5650 5649 5649 5644
5528 5537 5551 5564 5575 5577 5585 5586 5591 5595 5597 5597 5597 5594 5590 5596 5600 5602 5616 5619 5618 5614 5577 5623 5631 5655 5648 5640 5645 5651 5662 5661 5645 5644 5647 5638 5643 5645 5642 5644 5654 5643 5648 5646 5640 5639 5639
5513 5523 5533 5547 5561 5570 5576 5579 5584 5589 5593 5595 5592 5591 5588 5590 5593 5611 5616 5615 5613 5588 5584 5618 5635 5633 5633 5638 5640 5648 5652 5659 5652 5643 5645 5641 5649 5648 5648 5647 5650 5644 5643 5636 5630 5631 5623
5491 5504 5517 5529 5548 5558 5565 5571 5576 5581 5586 5591 5588 5588 5589 5596 5605 5612 5613 5607 5586 5582 5619 5616 5623 5632 5630 5628 5631 5636 5633 5632 5636 5627 5624 5635 5637 5646 5651 5646 5645 5643 5637 5618 5616 5614 5615
5464 5482 5500 5513 5535 5547 5554 5562 5567 5572 5577 5584 5582 5583 5589 5597 5606 5609 5606 5596 5588 5604 5609 5625 5626 5627 5623 5628 5625 5628 5628 5627 5634 5636 5623 5624 5621 5638 5644 5642 5638 5629 5633 5616 5604 5604 5612
5444 5464 5487 5507 5521 5537 5547 5549 5556 5562 5567 5574 5572 5574 5583 5601 5602 5601 5597 5580 5592 5602 5621 5621 5625 5620 5620 5627 5629 5625 5622 5626 5630 5636 5630 5621 5620 5636 5637 5640 5639 5624 5620 5620 5599 5579 5597
5425 5450 5478 5495 5516 5529 5540 5542 5545 5550 5557 5568 5570 5572 5590 5600 5601 5600 5591 5589 5606 5617 5628 5627 5617 5622 5615 5623 5623 5622 5623 5626 5629 5632 5638 5626 5615 5625 5632 5635 5631 5633 5623 5614 5606 5595 5599
5416 5442 5466 5484 5496 5521 5532 5541 5542 5542 5551 5558 5568 5572 5590 5593 5597 5593 5586 5594 5611 5624 5631 5628 5622 5620 5622 5623 5621 5619 5619 5624 5629 5630 5634 5627 5623 5615 5622 5622 5623 5621 5616 5604 5605 5595 5600
5415 5437 5470 5483 5500 5515 5526 5537 5540 5541 5546 5546 5562 5569 5583 5587 5582 5577 5588 5603 5620 5627 5634 5634 5635 5630 5626 5624 5619 5618 5619 5624 5623 5627 5625 5620 5610 5603 5614 5620 5622 5623 5619 5614 5605 5597 5581
5422 5448 5474 5493 5511 5519 5523 5532 5539 5544 5551 5551 5562 5572 5578 5584 5573 5570 5594 5611 5622 5626 5631 5636 5632 5635 5628 5619 5614 5613 5613 5616 5620 5621 5618 5618 5604 5596 5606 5614 5620 5620 5616 5606 5597 5592 5591
5433 5456 5473 5483 5506 5517 5521 5531 5539 5549 5556 5557 5563 5562 5570 5573 5581 5593 5599 5608 5616 5628 5631 5634 5628 5629 5621 5614 5610 5605 5607 5611 5615 5615 5609 5615 5602 5608 5608 5613 5611 5611 5610 5606 5610 5596 5595
5446 5458 5474 5493 5506 5516 5523 5530 5542 5552 5554 5555 5561 5565 5578 5569 5580 5593 5606 5610 5613 5619 5632 5632 5627 5627 5620 5607 5606 5602 5605 5606 5609 5605 5606 5610 5606 5601 5596 5597 5602 5610 5610 5605 5608 5606 5607
5456 5470 5485 5499 5508 5516 5527 5533 5542 5552 5549 5554 5563 5567 5565 5575 5586 5592 5596 5604 5612 5616 5624 5627 5623 5619 5622 5614 5617 5605 5609 5605 5609 5603 5602 5598 5594 5594 5592 5590 5591 5600 5606 5605 5602 5600 5602
5458 5475 5492 5504 5510 5521 5530 5536 5545 5555 5556 5558 5562 5575 5583 5554 5576 5585 5593 5604 5613 5618 5615 5617 5622 5615 5613 5612 5611 5607 5604 5606 5608 5605 5594 5592 5587 5586 5586 5575 5583 5588 5611 5611 5606 5606 5612
5475 5491 5502 5507 5517 5526 5533 5539 5550 5558 5562 5570 5573 5579 5572 5555 5572 5588 5598 5611 5611 5618 5614 5609 5614 5614 5604 5604 5604 5604 5598 5594 5595 5589 5591 5583 5575 5558 5577 5557 5579 5617 5612 5611 5608 5613 5606
5486 5496 5504 5515 5523 5530 5538 5545 5553 5559 5562 5570 5575 5581 5572 5543 5571 5588 5595 5599 5601 5602 5602 5602 5602 5602 5602 5602 5591 5588 5579 5583 5578 5575 5578 5582 5569 5549 5572 5571 5586 5613 5603 5602 5598 5612 5610
5496 5502 5513 5521 5528 5538 5543 5549 5556 5558 5563 5569 5571 5579 5581 5567 5573 5592 5592 5597 5596 5593 5593 5591 5594 5595 5593 5574 5577 5575 5578 5586 5582 5579 5570 5567 5563 5575 5538 5568 5573 5599 5601 5598 5595 5590 5600
5502 5511 5519 5526 5534 5540 5547 5553 5559 5559 5563 5569 5569 5579 5585 5574 5579 5590 5592 5596 5597 5594 5588 5587 5590 5593 5589 5568 5566 5574 5580 5572 5579 5571 5555 5558 5543 5559 5517 5560 5570 5587 5587 5586 5576 5582 5580
5509 5516 5523 5530 5536 5543 5550 5557 5559 5560 5564 5571 5566 5574 5584 5570 5575 5586 5594 5594 5595 5598 5593 5587 5586 5583 5571 5574 5571 5565 5567 5569 5572 5573 5564 5570 5556 5546 5514 5538 5562 5577 5576 5572 5579 5574 5571
5514 5518 5522 5528 5535 5545 5553 5560 5561 5562 5565 5572 5568 5573 5578 5579 5573 5579 5586 5592 5599 5604 5597 5582 5597 5591 5591 5571 5550 5542 5551 5541 5550 5572 5556 5564 5569 5564 5562 5570 5573 5568 5569 5567 5562 5561 5561